Location: Unspecified
(0.0000°N, 0.0000°E)
Time: 03:30:02
(UTC+00:00)

NTS 1 - Pass Details

Date: 21 May 2026
Orbit: 13477 x 13743 km, 124.9° (Epoch: 9 June)

Event Time Altitude Azimuth Distance (km) Brightness Sun altitude
Rises 03:12:04 0° 149° (SSE) 19,087 ? -38.1°
Reaches altitude 10° 03:26:48 10° 159° (SSE) 18,000 ? -34.8°
Maximum altitude 04:09:14 26° 203° (SSW) 16,418 ? -25.1°
Enters shadow 04:41:42 16° 240° (WSW) 17,265 ? -17.5°
